KUIPER-00279

Last updated on Sun Mar 15 2026 00:02:06 GMT+0000 (Coordinated Universal Time)

1 67795U 26030AH 26073.58424098 .00027065 00000+0 78006-3 0 9996 2 67795 51.8798 195.6211 0006283 58.8248 301.3354 15.35516128 5846
UTC large
Height (km)
Speed (km/s)
/
Latitude / Longitude
Inclination (degrees)
Orbital Period (minutes)
Azimuth
Elevation
Range (km)
Doppler Factor

Next 0 passes for location: London (51.5072 / 0.1276)

Sorry there are no passes over London.